DECAYED

STARLINK-11126, 59951 (Decayed)

Orbit data source: Space-Track

STARLINK-11126, 59951 was a payload satellite owned by SpaceX/Seattle (US) in LEO that was launched on Wed, 05 Jun 2024 UTC via an FALCON 9 launch vehicle from the Air Force Eastern Test Range (AFETR). Payload-class satellites include a variety of spacecraft equipped with specific instruments for various scientific and technological missions. These include communications satellites like Starlink; space stations such as the ISS; scientific satellites like the Hubble; Earth observation satellites from companies like Planet Labs, Umbra, and HawkEye 360; GPS; miniature CubeSats for education and research; and military/defense satellites.

Not visible in the next 10 days
Identifier
59951, 2024-107G
Orbit
Decayed
Last TLE update
3 weeks ago
Origin
Manufacturer
SpaceX/Seattle
Mission
Decayed spacecraft
Bus & Motor
STARLINK V2M, Unknown motor
Mass
730 kg wet, ~700 kg dry
Launch date (UTC)
2024-06-05 (11 months ago)
Launch vehicle
FALCON 9
Launch site
Air Force Eastern Test Range (AFETR)
Object type
Payload
Rocket body
Debris
Shape & HBR
Unknown
Radar Cross Section
Large (>1 m²)

Expand to show TLE details & history

TLE from 3 weeks ago
0 STARLINK-11126
1 59951U 24107G   25110.90627451  .04339931  12050-4  91491-3 0  9997
2 59951  53.1317  20.3657 0008552 235.5455 213.6012 16.30035905 51792
Epoch: 2025-04-20T21:45Z
Definitive object data (Epoch: 2025-04-20T21:45:02.117Z)
Latitude
53.27995°
Longitude
-66.63569°
Altitude
203.639 km
Speed
7.788 km/s
True Right ascension
07h 15m 24s
True Declination
53° 06' 04"
Sunlit
Object was in daylight at TLE epoch
Visualization observer readout
Visualization observer readout
Orbital elements
Apogee altitude
198.335 km
Perigee altitude
187.096 km
Semi-major axis
6,570.852 km
Eccentricity
0.0008552
Inclination
53.1317°
RAAN
20.3657°
Arg. of periapsis
235.5455°
True anomaly
213.54701°
Mean anomaly
213.6012°
Eccentric anomaly
213.5741°
Mean motion
4.07484 °/min
BSTAR
0.00091491
Orbital period
88.35 mins
Loading maneuver chart data...
Loading SW <> Apogee altitude chart data...
Loading historical data...
Loading historical data...
Loading historical data...
Loading historical data...
Loading historical data...
Loading historical data...
Loading historical data...

STARLINK-11126 Visibility forecast

Observer location: undefined°, undefined°

This satellite is decayed
Span
Click to sort rows by Start time (UTC) header in descending order
Start Az.
Max El. time (UTC)
Max El. Az.
Max El.
End time (UTC)
End Az.
|